Content
SEND FEEDBACK

Daily
Averages
Monthly
Summary
United States of America

PUT IN BAY, OHIO


Home > North America > United States > Ohio
Elevation: 561 feet     Latitude: 41 39N     Longitude: 082 48W

WEATHER
 
SELECT A DAY
Number of Records: 125,373;   Date Range: 12/10/00 - 12/17/14
 
SHARE

PRINT THIS DATA

[ ← Previous Day ]
WEATHER ALMANAC - MARCH 22, 2013
[ Next Day → ]
[ °C ]   °F
Weather ElementAverageHighLow
Temperature30.4 °F38.1 °F (5:00 pm)26.6 °F (6:00 am)
Dewpoint19.8 °F24.6 °F (10:00 pm)15.8 °F (7:00 am)
Humidity63.7 %81 % (10:00 pm)45 % (2:00 pm)
Barometer29.98 in30.03 in (10:00 pm)29.94 in (1:00 am)
Wind Speed7.7 mph11.5 mph (11:00 am)
Wind Gust18.4 mph (11:00 am)
Weather ElementAverage
Wind DirectionW (270 °)

Weather ElementTotal
Precipitation---
Heating Degree Days32.7 (Base 65)
Averaged from 27 records on March 22, 2013
WEATHER CONDITIONS BREAKOUT
WIND DIRECTION BREAKOUT
WEATHER BY HOUR - MARCH 22, 2013
[ °C ]   °F
Local TimeTemperatureDewpointHumidityBarometerVisibilityWind DirectionWind SpeedGust SpeedPrecipitationEventsConditions
1:00 AM28.0 °F20.7 °F74 %29.94 inWNW (290°)9.2 mph
2:00 AM28.0 °F20.0 °F63 %29.94 inWNW (290°)9.2 mph
2:00 AM27.9 °F20.5 °F74 %29.94 inWNW (290°)9.2 mph
3:00 AM27.3 °F19.9 °F74 %29.95 inWNW (290°)9.2 mph
4:00 AM27.3 °F18.0 °F68 %29.95 inWNW (290°)8.1 mph
5:00 AM27.0 °F16.3 °F64 %29.96 inWNW (300°)8.1 mph
6:00 AM26.6 °F16.0 °F64 %29.96 inNW (320°)6.9 mph
7:00 AM26.6 °F15.8 °F64 %29.98 inNW (310°)8.1 mph17.3 mph
8:00 AM27.0 °F16.0 °F50 %30.00 inWNW (300°)9.2 mph
8:00 AM26.6 °F15.8 °F64 %30.00 inWNW (300°)9.2 mph
9:00 AM27.1 °F16.7 °F65 %29.99 inNW (320°)6.9 mph
10:00 AM27.9 °F16.5 °F62 %30.00 inNW (320°)9.2 mph
11:00 AM28.6 °F16.0 °F59 %30.00 inWNW (300°)11.5 mph18.4 mph
12:00 PM31.8 °F19.8 °F61 %30.00 inNW (310°)6.9 mph
1:00 PM32.0 °F18.1 °F57 %30.00 inWest (280°)9.2 mph
2:00 PM33.0 °F20.0 °F45 %30.00 inWest (270°)11.5 mph
2:00 PM33.3 °F19.8 °F58 %30.00 inWest (270°)11.5 mph18.4 mph
3:00 PM35.1 °F19.9 °F54 %29.99 inWest (280°)9.2 mph
4:00 PM37.8 °F21.6 °F52 %29.97 inWSW (250°)10.4 mph
5:00 PM38.1 °F22.3 °F53 %29.96 inWest (260°)9.2 mph
6:00 PM37.4 °F22.6 °F55 %29.97 inWSW (240°)9.2 mph
7:00 PM35.8 °F23.2 °F60 %29.98 inSW (230°)4.6 mph
8:00 PM31.0 °F24.0 °F66 %29.99 inSW (220°)2.3 mph
8:00 PM31.3 °F23.9 °F74 %29.99 inSW (220°)2.3 mph
9:00 PM29.1 °F23.0 °F78 %30.02 inSW (230°)2.3 mph
10:00 PM29.8 °F24.6 °F81 %30.03 inWest (260°)2.3 mph
11:00 PM29.1 °F23.9 °F81 %30.03 inNE (50°)2.3 mph
Hourly data recorded from CXHA, located miles away from Put In Bay, Ohio







STORIES FROM OUR PARTNERS